Leesburg, FL

4:10 AM EST on December 07, 2019 (GMT -0500)
Leesburg Regional

Weather History for KLEE - November, 2019

Change the Weather History Date:

Saturday, November 16, 2019

  Actual Average Record
Temperature  
Mean Temperature 56 °F -  
Max Temperature 59 °F 75 °F 86 °F (2011)
Min Temperature 52 °F 53 °F 35 °F (1969)
Degree Days  
Heating Degree Days 10    
Growing Degree Days 6 (Base 50)    
Moisture  
Dew Point 50 °F    
Average Humidity 81    
Maximum Humidity 89    
Minimum Humidity 74    
Precipitation  
Precipitation 0.00 in - - ()
Sea Level Pressure  
Sea Level Pressure 29.92 in    
Wind  
Wind Speed 9 mph (NW)    
Max Wind Speed 15 mph    
Max Gust Speed 21 mph    
Visibility 10 miles    
Events      
Averages and records for this station are not official NWS values.
T = Trace of Precipitation, MM = Missing Value Source: NWS Daily Summary

Daily Weather History Graph

Daily Weather History Graph

Search for Another Location

Airport or City:

Astronomy

Nov. 16, 2019 Rise Set
Actual Time 6:50 AM EST 5:32 PM EST
Civil Twilight 6:25 AM EST 5:57 PM EST
Nautical Twilight 5:57 AM EST 6:26 PM EST
Astronomical Twilight 5:29 AM EST 6:54 PM EST
Moon 9:12 PM EST (11/16) 10:35 AM EST (11/16)
Length of Visible Light 11h 32m
Length of Day
10h 41m
Waning Gibbous, 82% of the Moon is Illuminated
Nov 16
Waning Gibbous
Nov 19
Last Quarter
Nov 26
New
Dec 4
First Quarter
Dec 12
Full

Hourly Weather History & Observations

Time (EST) Temp. Dew Point Humidity Pressure Visibility Wind Dir Wind Speed Gust Speed Precip Events Conditions
12:33 AM 55.9 °F 52.0 °F 87% 29.94 in 10.0 mi WNW 9.2 mph - N/A   Overcast
12:53 AM 55.0 °F 52.0 °F 89% 29.93 in 10.0 mi WNW 10.4 mph - N/A   Overcast
1:53 AM 55.9 °F 52.0 °F 87% 29.92 in 10.0 mi West 8.1 mph - N/A   Overcast
1:57 AM 55.9 °F 52.0 °F 87% 29.92 in 10.0 mi WNW 6.9 mph - N/A   Overcast
2:29 AM 55.9 °F 52.0 °F 87% 29.91 in 10.0 mi West 9.2 mph - N/A   Overcast
2:53 AM 55.9 °F 51.1 °F 84% 29.90 in 10.0 mi WNW 6.9 mph - N/A   Overcast
3:04 AM 55.9 °F 51.1 °F 84% 29.90 in 10.0 mi WNW 8.1 mph - N/A   Overcast
3:15 AM 55.9 °F 51.1 °F 84% 29.90 in 10.0 mi WNW 10.4 mph - N/A   Overcast
3:24 AM 55.9 °F 51.1 °F 84% 29.90 in 10.0 mi WNW 10.4 mph - N/A   Overcast
3:53 AM 55.0 °F 51.1 °F 86% 29.90 in 10.0 mi WNW 9.2 mph - N/A   Overcast
4:10 AM 55.0 °F 51.1 °F 86% 29.90 in 8.0 mi WNW 6.9 mph - N/A   Overcast
4:31 AM 55.0 °F 51.1 °F 86% 29.90 in 10.0 mi WNW 5.8 mph - N/A   Overcast
4:53 AM 55.0 °F 51.1 °F 86% 29.90 in 10.0 mi WNW 6.9 mph - N/A   Overcast
5:18 AM 55.9 °F 51.1 °F 84% 29.91 in 10.0 mi WNW 8.1 mph - N/A   Overcast
5:53 AM 55.0 °F 51.1 °F 86% 29.90 in 10.0 mi NW 5.8 mph - N/A   Overcast
6:38 AM 55.0 °F 51.1 °F 86% 29.92 in 10.0 mi WNW 11.5 mph - N/A   Mostly Cloudy
6:53 AM 55.0 °F 51.1 °F 86% 29.92 in 10.0 mi NW 4.6 mph - N/A   Overcast
7:14 AM 55.0 °F 51.1 °F 86% 29.92 in 10.0 mi NW 6.9 mph - N/A   Overcast
7:33 AM 55.0 °F 51.1 °F 86% 29.93 in 10.0 mi WNW 8.1 mph 17.3 mph N/A   Overcast
7:53 AM 55.0 °F 50.0 °F 83% 29.93 in 10.0 mi NW 12.7 mph - N/A   Overcast
8:27 AM 57.0 °F 51.1 °F 81% 29.93 in 10.0 mi NW 10.4 mph - N/A   Scattered Clouds
8:53 AM 57.9 °F 50.0 °F 75% 29.93 in 10.0 mi WNW 11.5 mph - N/A   Scattered Clouds
9:34 AM 59.0 °F 51.1 °F 75% 29.93 in 10.0 mi West 9.2 mph - N/A   Mostly Cloudy
9:53 AM 57.9 °F 50.0 °F 75% 29.93 in 10.0 mi NW 8.1 mph - N/A   Overcast
10:10 AM 57.0 °F 50.0 °F 77% 29.93 in 10.0 mi WNW 11.5 mph - N/A   Overcast
10:53 AM 57.9 °F 50.0 °F 75% 29.92 in 10.0 mi WNW 11.5 mph 17.3 mph N/A   Overcast
11:27 AM 57.0 °F 48.9 °F 74% 29.92 in 10.0 mi WNW 9.2 mph - N/A   Overcast
11:53 AM 57.0 °F 48.9 °F 74% 29.93 in 10.0 mi NW 10.4 mph - N/A   Overcast
12:05 PM 57.0 °F 48.9 °F 74% 29.93 in 10.0 mi WNW 8.1 mph - N/A   Overcast
12:20 PM 57.0 °F 48.9 °F 74% 29.92 in 10.0 mi NW 8.1 mph - N/A   Overcast
12:53 PM 57.0 °F 48.9 °F 74% 29.91 in 10.0 mi NW 10.4 mph - N/A   Overcast
1:53 PM 55.9 °F 48.0 °F 75% 29.90 in 10.0 mi NW 8.1 mph - N/A   Overcast
3:04 PM 55.9 °F 48.0 °F 75% 29.90 in 10.0 mi WNW 8.1 mph - N/A   Overcast
3:53 PM 55.0 °F 48.0 °F 77% 29.90 in 10.0 mi WNW 6.9 mph - N/A   Overcast
4:53 PM 55.0 °F 48.0 °F 77% 29.91 in 10.0 mi NNW 13.8 mph 20.7 mph N/A   Overcast
5:16 PM 55.0 °F 48.0 °F 77% 29.92 in 10.0 mi North 12.7 mph - N/A   Overcast
5:53 PM 54.0 °F 46.9 °F 77% 29.92 in 10.0 mi North 15.0 mph 19.6 mph N/A   Overcast
6:53 PM 54.0 °F 48.0 °F 80% 29.94 in 10.0 mi North 12.7 mph - N/A   Overcast
7:53 PM 53.1 °F 46.0 °F 77% 29.97 in 10.0 mi NNW 12.7 mph - N/A   Overcast
8:53 PM 52.0 °F 46.0 °F 80% 29.98 in 10.0 mi North 10.4 mph - N/A   Overcast
9:25 PM 52.0 °F 45.0 °F 77% 29.97 in 10.0 mi North 9.2 mph - N/A   Overcast
9:53 PM 53.1 °F 45.0 °F 74% 29.97 in 10.0 mi NNW 11.5 mph - N/A   Overcast
10:53 PM 52.0 °F 46.0 °F 80% 29.97 in 10.0 mi North 10.4 mph - N/A   Overcast
11:53 PM 52.0 °F 46.0 °F 80% 29.96 in 10.0 mi NNW 11.5 mph - N/A   Overcast